Theta_e
320 323 323 325 324 321 324 321 315 318 323 320 315 315 316 314 316 318 315 316 319 320 327 328 325 328 324 332 348 351 354 359 359 358 356 353 353 353 355 357 357 356 354 352 352 352 353 355 354 354 356 355 357 358 359 358 357 356 356 356 356 353 350
318 320 321 322 325 324 321 317 318 323 324 321 317 315 317 317 317 317 314 316 316 314 320 327 326 329 323 327 345 351 353 359 361 359 357 355 355 355 356 357 356 354 354 352 352 353 354 355 355 355 355 356 357 358 359 359 358 358 356 357 357 354 351
317 317 319 320 323 325 323 320 322 322 318 317 317 315 316 318 318 317 315 316 315 314 319 324 324 328 326 330 346 355 356 359 360 358 356 356 355 355 356 357 356 355 353 353 353 353 355 355 356 356 355 356 357 359 360 360 359 359 357 356 356 356 354
315 316 318 317 318 324 324 323 324 322 318 317 318 316 316 317 318 318 317 316 315 321 328 324 324 328 328 334 350 358 358 359 358 356 356 356 355 356 356 355 355 355 353 354 353 353 353 354 355 355 356 356 356 358 360 360 360 361 359 358 357 357 355
313 314 317 316 315 318 320 319 319 319 320 320 320 318 315 315 318 318 320 318 318 326 334 331 330 331 328 335 352 358 358 356 355 355 354 355 355 356 356 355 356 355 355 354 354 355 354 354 356 356 356 357 357 358 360 360 361 361 361 360 359 359 357
314 313 315 317 316 317 318 317 317 317 319 318 317 319 317 315 315 316 318 318 319 328 335 335 334 333 329 332 345 354 357 354 353 354 353 353 354 354 356 355 355 356 355 355 355 354 355 355 356 356 357 357 358 358 360 361 362 361 361 361 360 360 359
315 316 317 316 317 317 317 319 319 320 319 317 315 318 320 316 315 315 315 315 319 329 335 333 333 334 330 328 337 349 356 354 353 353 353 353 353 353 354 355 355 355 355 355 355 354 354 354 355 356 356 357 357 358 360 361 362 362 362 362 361 361 361
316 316 315 314 316 317 318 319 321 321 320 319 317 319 321 318 315 315 315 315 318 327 335 336 338 339 333 329 331 338 347 350 352 354 353 353 353 353 353 354 355 355 355 354 356 354 355 355 357 356 357 357 357 357 359 361 363 362 362 363 362 363 362
319 315 313 316 322 320 318 320 322 322 322 322 322 322 323 321 318 319 320 317 319 328 340 340 339 341 339 339 339 333 336 340 345 352 354 352 351 353 352 353 355 354 355 357 357 355 355 357 359 358 357 358 358 357 359 361 362 363 363 363 363 362 363
323 321 319 322 324 320 318 319 320 320 321 321 321 322 324 325 324 324 323 321 324 332 341 341 340 341 343 345 344 341 339 339 340 347 352 351 351 353 353 354 356 356 356 359 359 357 356 357 359 359 358 358 358 357 359 361 362 363 364 364 364 363 364
320 320 320 320 319 316 315 316 316 317 319 320 321 322 324 326 326 326 327 326 326 329 336 342 341 339 344 347 344 342 343 342 341 346 352 352 350 354 354 353 355 358 359 360 360 357 356 357 358 358 358 358 358 358 358 359 361 362 363 364 364 364 364
315 314 314 314 314 314 314 313 313 315 318 319 320 320 323 326 326 327 331 330 325 325 331 341 342 341 345 346 344 343 343 340 341 346 352 354 351 353 356 355 355 358 359 360 361 359 357 357 357 357 357 357 357 358 358 358 359 360 362 363 364 365 365
311 311 311 312 313 313 313 313 313 314 315 317 317 318 320 323 324 325 328 328 326 325 328 336 342 343 344 344 344 343 342 340 340 344 349 351 351 353 353 354 359 363 361 359 360 359 357 357 357 356 357 357 356 357 357 358 359 360 362 362 363 365 366
311 310 310 311 311 311 312 313 313 313 314 315 315 316 319 320 321 323 324 326 328 327 328 337 344 345 343 342 343 343 342 342 342 346 349 350 350 351 351 351 356 366 371 368 366 363 358 357 358 357 357 357 357 358 357 358 359 359 361 363 363 365 366
312 311 311 311 311 311 312 312 312 313 313 314 314 315 317 320 322 323 323 327 329 329 332 341 346 347 344 342 344 343 343 344 344 346 347 348 350 351 352 352 353 358 362 367 373 371 360 357 358 358 357 358 358 357 359 358 359 359 359 361 363 363 365
313 311 311 312 311 311 311 310 312 312 312 313 315 315 318 320 320 322 322 325 329 330 334 343 346 345 344 342 342 343 342 341 342 343 343 345 346 350 353 354 355 355 356 360 367 367 359 356 359 359 359 359 358 358 359 359 359 359 359 360 361 362 364
315 313 312 312 313 314 313 311 312 312 312 313 313 314 318 318 319 321 321 323 330 333 337 343 344 344 346 341 336 339 340 339 338 338 339 340 341 343 346 349 354 356 357 359 359 356 354 354 357 358 360 360 359 358 359 359 358 359 359 358 359 361 362
316 314 313 314 315 315 315 314 313 313 312 313 314 315 317 318 319 319 320 326 334 336 336 339 340 342 345 338 331 333 336 337 335 335 336 335 337 338 339 341 347 350 351 353 354 352 352 351 352 355 358 359 359 359 359 359 358 358 358 357 357 357 357
316 314 315 317 316 316 315 313 313 316 317 319 321 322 322 325 327 324 326 332 335 334 334 334 336 339 338 333 330 329 329 331 333 333 333 333 333 335 335 336 340 343 344 347 350 352 353 353 350 351 355 357 356 356 358 358 358 358 357 356 356 356 356
316 315 316 316 317 315 314 313 316 323 326 328 331 332 330 330 331 330 332 333 332 331 331 331 332 335 336 334 330 327 326 328 329 330 331 331 330 331 333 333 335 338 341 343 346 349 351 355 354 353 354 355 355 355 358 357 358 358 357 356 356 355 355
317 316 316 315 316 315 314 316 321 328 329 329 334 336 333 329 328 329 331 331 329 329 329 330 331 334 340 341 333 327 325 325 326 328 329 329 328 328 330 332 333 335 337 339 341 344 347 353 355 355 355 355 354 355 356 356 357 357 357 356 356 355 355
317 317 317 318 317 315 315 321 327 326 324 325 328 332 332 329 326 327 328 328 328 327 327 329 332 338 350 348 335 328 325 323 324 326 327 327 327 327 328 330 331 333 335 336 338 341 346 351 355 356 357 358 356 355 355 355 355 356 357 357 356 356 355
317 317 318 318 317 316 319 326 327 322 321 323 324 328 332 328 325 326 326 326 326 325 326 328 330 338 348 343 331 327 327 324 323 324 324 325 326 326 327 328 330 331 333 335 337 340 344 348 352 355 356 357 358 355 354 354 355 356 356 357 356 356 356
318 317 318 317 315 317 322 324 322 320 321 322 322 328 331 327 324 325 325 325 325 324 325 326 327 330 334 331 327 326 326 324 323 322 323 324 325 326 327 327 328 330 331 334 336 338 341 344 348 352 355 357 358 358 356 354 354 355 356 356 356 356 356
318 317 317 316 316 320 321 320 318 320 322 321 322 327 329 325 324 325 325 324 324 323 323 325 326 326 326 326 327 325 323 323 322 321 322 324 325 325 326 326 328 329 330 333 334 336 339 342 346 352 357 357 357 359 359 357 354 354 354 355 355 356 356
318 318 317 317 318 320 319 317 318 321 324 324 324 325 326 323 323 325 325 324 323 323 323 323 325 324 322 324 326 324 323 324 322 321 322 323 324 325 325 326 327 328 330 332 333 335 338 342 348 354 357 359 359 359 360 359 358 355 353 354 356 356 357
318 318 318 318 320 320 318 317 319 322 324 324 323 323 324 324 324 324 324 324 323 323 323 322 323 322 322 323 324 324 324 324 322 321 322 323 324 325 325 325 326 328 330 331 333 335 338 343 348 354 356 359 359 360 361 362 362 359 354 352 354 356 357
317 318 319 319 318 318 317 319 320 320 320 322 323 322 323 323 324 324 325 324 323 322 322 321 321 322 322 323 323 323 324 323 321 321 322 323 324 325 325 325 327 328 330 331 332 335 339 344 350 354 358 362 364 366 368 368 366 362 356 351 352 354 355
316 317 318 318 317 317 317 319 320 319 319 321 322 322 321 322 323 324 324 323 323 322 322 322 321 321 322 322 323 323 322 322 322 322 322 323 324 325 325 326 327 328 329 331 332 335 340 347 352 355 360 364 368 370 371 373 371 367 358 352 352 352 354
315 315 316 317 316 315 314 316 318 318 318 318 319 319 319 320 321 321 322 323 322 321 322 322 321 321 322 322 323 323 322 322 321 322 322 323 324 325 326 326 327 328 330 331 332 336 341 347 351 355 360 363 366 368 370 372 373 370 361 355 353 353 354
314 315 316 315 313 312 312 314 315 315 315 315 315 316 317 317 318 319 320 321 321 321 322 322 322 322 322 322 323 324 323 323 322 322 322 323 324 325 325 326 327 329 330 331 334 337 342 346 350 353 358 361 363 367 368 370 372 372 364 356 357 358 358
313 315 315 312 310 310 312 313 312 312 313 313 313 314 315 315 316 317 318 319 320 320 320 321 322 322 322 322 323 324 324 323 322 322 323 323 324 325 326 326 328 330 331 332 335 338 341 344 345 350 356 360 363 366 366 367 370 372 365 358 358 360 362
312 312 312 311 310 311 311 311 310 310 311 312 312 313 314 314 315 316 317 318 319 319 320 321 322 322 322 322 324 325 324 323 322 322 323 323 323 324 326 327 328 330 331 333 336 338 339 340 343 348 356 359 361 362 363 363 366 371 368 361 361 362 363
312 312 311 310 311 311 310 309 309 310 310 310 311 313 313 314 315 316 316 317 318 319 320 321 321 322 323 324 324 325 324 322 322 322 322 322 323 325 326 326 326 328 330 333 335 336 336 337 340 345 352 357 357 359 361 361 364 370 370 366 363 365 366
312 312 311 310 310 309 309 308 309 310 310 310 312 312 313 313 314 314 315 316 317 318 320 321 321 322 323 323 324 325 323 321 321 322 322 322 323 325 326 326 324 325 329 332 334 335 334 335 336 338 345 353 357 357 359 360 362 368 371 368 365 366 368
312 311 311 310 310 310 309 309 309 309 310 311 312 312 312 312 313 313 314 315 316 317 319 320 321 322 322 321 323 324 324 321 321 322 322 321 323 325 326 326 323 324 328 331 332 332 333 333 333 334 339 347 351 352 354 358 361 365 371 371 368 368 369
312 311 310 310 310 311 310 309 308 308 310 311 311 311 311 312 313 313 314 314 315 317 318 319 320 321 321 321 321 322 323 321 321 321 321 320 322 324 327 326 323 323 327 330 329 329 330 331 331 332 335 340 344 345 350 356 359 361 367 371 369 366 366
Wind_Speed
8 4 5 8 7 3 2 4 5 5 3 2 2 4 6 4 3 2 4 4 3 5 6 9 11 13 15 12 18 21 19 18 17 15 17 17 16 17 16 16 17 18 19 21 24 26 29 32 33 35 36 38 38 38 40 41 41 40 40 39 40 41 41
12 13 13 8 9 6 4 3 3 3 3 3 1 1 4 3 2 2 4 5 4 5 5 8 9 11 14 12 17 24 20 19 20 17 17 18 18 17 16 16 16 16 17 20 24 27 30 34 36 37 38 38 39 39 41 42 41 42 41 40 39 39 40
14 15 13 8 8 10 7 6 4 1 2 3 2 1 1 2 2 2 5 8 4 4 5 9 11 11 12 10 16 23 20 19 19 17 18 19 17 16 15 15 15 15 16 20 25 27 29 34 36 37 37 37 37 38 41 43 43 43 42 40 38 39 40
14 11 6 4 1 6 8 8 6 1 2 1 2 2 2 2 2 2 4 6 4 4 4 9 12 12 10 8 16 20 20 21 18 16 16 16 16 15 15 15 15 15 17 22 28 29 29 32 35 36 36 36 37 38 39 42 42 41 41 40 39 39 40
10 7 3 5 9 5 4 5 5 3 1 1 2 3 2 3 2 2 2 4 5 6 4 5 8 11 10 7 14 18 18 21 20 17 17 16 15 16 16 16 16 16 17 22 28 30 29 31 33 36 36 35 37 38 38 40 41 41 42 41 40 39 39
6 9 11 12 13 10 7 4 4 5 3 2 2 3 4 3 3 3 2 4 6 5 2 4 4 6 11 8 12 18 19 20 20 18 19 19 18 17 17 17 16 16 16 20 26 29 28 28 31 35 36 35 36 36 37 39 40 41 42 42 41 40 39
8 15 19 16 13 11 9 6 5 5 4 3 3 3 4 3 3 5 3 3 7 6 4 8 12 7 10 11 10 17 20 19 20 20 20 20 19 19 19 18 16 15 15 19 25 27 27 27 30 34 36 36 36 37 37 38 39 40 41 41 41 40 39
9 15 17 14 9 7 7 6 5 4 6 7 4 3 2 2 3 3 5 3 8 7 5 9 15 16 4 6 6 12 17 16 18 20 20 19 18 17 18 18 15 14 16 18 20 23 25 25 27 32 35 36 36 36 37 38 40 41 41 40 39 39 40
7 10 10 8 7 9 7 7 10 10 11 13 8 4 4 3 6 8 1 5 7 6 8 11 15 19 15 11 7 1 5 6 13 19 19 18 19 19 18 18 17 16 16 16 15 18 24 24 25 29 32 34 35 35 36 38 39 40 39 39 38 38 39
4 5 4 3 6 9 7 9 14 14 14 15 9 5 4 3 7 11 3 3 7 8 11 13 15 18 18 18 18 14 11 10 2 14 21 19 17 18 20 19 18 17 17 17 16 19 24 26 26 28 30 32 34 34 35 36 38 38 37 37 37 37 37
6 7 7 8 9 9 10 13 17 14 13 13 6 2 2 2 4 6 3 5 10 12 11 11 12 15 16 16 18 18 16 18 15 1 16 21 17 16 19 19 18 17 16 17 18 19 23 27 28 28 29 31 33 33 34 35 36 37 37 36 36 36 36
10 12 14 15 13 12 12 16 17 14 12 11 7 3 4 5 4 3 7 12 11 11 12 9 9 13 13 14 16 16 15 16 17 14 8 12 15 15 15 14 15 16 17 18 18 17 21 26 28 30 30 30 31 33 33 33 33 34 36 35 35 35 35
13 13 15 15 13 12 12 15 17 15 13 11 8 7 7 8 5 3 9 14 10 10 12 8 8 9 10 12 13 14 15 16 17 20 20 14 8 9 8 5 3 4 6 9 12 15 20 24 24 25 27 29 30 31 32 33 33 33 34 34 34 34 34
13 14 14 14 14 13 13 15 16 14 12 12 11 9 8 10 9 7 9 12 10 9 10 6 6 6 7 10 12 14 16 18 18 19 20 18 16 16 16 15 12 10 8 5 2 4 11 20 24 25 25 27 29 30 31 32 32 33 34 34 34 33 35
10 12 12 12 12 13 14 15 15 15 13 12 10 9 7 8 9 8 8 10 8 6 7 6 6 7 10 13 15 15 15 17 19 20 20 18 18 17 16 16 15 13 11 10 8 6 2 6 15 21 24 27 29 27 28 30 31 32 32 32 32 32 32
7 9 10 11 11 13 15 15 14 14 14 10 8 8 6 6 9 9 7 7 6 5 6 6 8 12 15 17 16 14 14 16 18 18 18 18 17 15 13 13 15 15 13 10 9 5 4 4 5 8 12 19 26 28 28 29 31 31 30 31 32 33 31
7 10 11 11 10 9 10 9 9 11 12 11 9 9 9 9 8 6 5 4 5 10 10 10 12 14 15 15 15 13 12 14 17 17 17 17 17 15 14 13 12 12 10 9 11 13 14 9 4 5 8 13 20 24 24 23 24 25 23 22 22 25 27
5 11 12 11 8 6 6 5 5 8 12 12 10 9 9 10 8 8 7 4 9 12 11 10 11 10 10 12 14 14 13 12 14 16 17 16 16 16 16 14 12 10 11 10 11 13 17 17 12 7 11 15 12 10 12 15 21 23 19 14 11 10 12
4 8 9 7 6 5 7 8 7 7 8 8 7 6 5 7 8 7 5 6 9 8 8 9 9 6 9 13 15 16 15 13 13 13 14 16 16 16 16 15 12 9 12 14 12 9 10 13 13 14 17 15 10 9 10 14 20 26 26 26 26 21 18
2 3 4 5 6 7 11 12 7 5 6 8 9 6 6 12 13 11 9 8 9 9 9 8 9 6 4 9 12 15 15 14 13 13 13 15 15 14 14 14 14 14 15 17 18 17 16 14 11 13 17 15 11 16 22 23 23 27 29 32 36 36 35
3 3 4 5 8 10 11 9 5 5 5 6 6 3 4 11 13 11 9 9 10 11 9 9 9 8 3 4 8 13 15 14 13 12 12 14 15 15 16 17 18 21 22 23 23 23 22 21 17 14 14 14 14 21 29 31 29 31 32 33 38 40 40
3 3 3 3 5 7 7 4 5 6 6 7 6 4 1 7 12 11 10 10 11 10 10 10 10 7 2 3 5 10 13 13 12 12 11 14 17 17 20 22 22 24 25 25 26 25 24 23 22 20 16 13 11 15 26 31 30 30 32 35 38 41 42
3 3 3 2 4 6 6 5 8 8 7 7 8 5 2 5 10 11 10 9 10 10 9 10 9 5 3 3 5 9 11 11 12 12 12 14 18 20 21 21 22 24 27 26 25 24 23 24 24 24 22 19 16 13 17 26 29 29 32 35 39 43 45
5 4 4 3 4 4 5 9 12 12 9 6 4 3 2 5 8 9 9 9 9 9 8 8 7 6 3 4 7 10 11 10 11 12 12 13 17 21 23 23 23 24 25 24 24 23 23 26 28 28 26 22 19 18 17 20 25 29 33 37 40 43 43
6 6 6 4 3 1 5 10 13 12 9 3 1 2 2 4 6 6 6 7 7 7 7 6 5 4 4 6 7 9 10 11 11 12 14 15 16 20 23 25 26 24 22 22 23 23 24 27 29 28 27 23 20 19 20 21 24 28 33 37 40 40 40
4 5 5 4 3 1 4 11 12 8 4 1 2 3 3 4 6 6 5 5 5 4 5 4 3 4 6 7 8 7 9 10 10 12 14 15 16 19 22 24 25 23 21 22 24 24 26 29 28 27 25 24 23 20 18 21 27 31 30 31 37 41 39
2 3 4 4 3 0 6 10 9 5 3 2 4 6 5 5 6 6 5 5 5 4 5 4 4 5 6 8 8 7 7 8 9 11 13 14 15 19 22 23 24 23 21 21 23 25 27 28 27 27 26 26 27 25 22 24 30 34 33 30 33 38 39
0 2 2 1 2 3 5 5 3 4 5 5 5 6 6 5 5 5 4 5 5 6 6 6 5 5 5 7 8 6 6 8 9 9 12 14 16 19 22 24 25 25 22 21 24 26 28 28 28 27 25 25 26 25 26 30 31 32 36 34 32 34 37
2 4 3 2 2 3 3 2 4 6 8 6 5 6 6 6 5 4 4 5 5 6 6 6 6 5 5 7 8 6 6 8 8 9 11 14 17 20 22 25 26 25 24 24 25 26 27 28 28 27 25 23 24 26 29 32 32 31 34 37 36 35 36
3 4 4 2 3 5 7 6 3 3 5 6 6 7 6 6 7 6 5 6 6 6 6 6 6 5 5 7 7 5 6 8 9 9 11 14 19 21 22 26 27 25 24 25 25 25 27 27 27 27 26 24 24 28 32 35 34 31 32 36 37 38 38
4 3 0 4 6 9 9 6 4 6 6 7 7 7 7 8 9 8 8 8 8 7 7 7 7 6 5 8 7 5 4 7 9 9 9 12 18 21 22 25 26 23 22 23 23 25 27 27 27 27 26 26 26 29 32 35 36 31 32 35 35 36 37
5 4 2 7 10 10 6 4 6 7 8 9 9 9 8 9 10 10 10 9 8 8 8 7 8 6 5 7 7 5 4 5 7 9 9 11 15 20 24 27 25 22 22 23 23 24 26 27 27 28 27 27 28 29 30 35 36 29 32 36 34 35 36
5 5 5 10 11 8 5 7 9 9 8 10 12 11 10 10 10 10 11 10 9 9 9 9 8 7 6 6 6 5 5 5 6 9 12 15 16 17 22 25 25 23 23 23 23 24 26 28 28 27 27 28 28 29 30 35 35 25 32 36 34 35 37
3 3 5 8 8 7 7 10 12 11 10 12 12 11 10 10 11 10 11 12 11 11 11 11 9 7 7 5 4 4 5 6 7 10 14 16 17 18 20 23 24 25 25 24 24 24 25 28 29 28 28 28 29 30 30 32 34 24 27 34 31 32 34
3 4 5 5 6 8 10 12 13 12 10 11 12 11 10 10 11 11 11 12 12 11 11 13 12 9 6 5 4 4 5 7 9 12 15 15 16 18 20 20 24 27 26 25 24 24 25 27 29 31 31 29 27 28 27 27 31 25 19 28 27 28 31
4 3 3 4 6 8 10 12 14 12 10 9 10 11 10 9 10 12 11 12 13 12 10 12 15 13 9 7 7 6 6 7 9 13 16 18 17 17 17 18 22 25 25 23 24 25 26 27 28 31 32 28 26 28 28 25 27 24 13 16 17 19 23
4 2 2 4 6 7 8 9 11 11 11 11 11 11 11 12 12 13 12 11 12 13 11 11 15 17 14 10 9 7 5 6 9 12 16 18 18 16 15 17 21 24 23 22 24 26 26 28 30 31 30 28 28 31 30 25 24 22 12 8 7 6 9
Wind_Direction
315 325 267 218 213 264 223 194 220 209 194 198 208 270 285 276 290 272 227 241 218 192 222 225 212 220 234 210 172 176 182 174 175 180 181 183 183 182 182 181 181 181 183 185 184 185 185 185 185 183 184 185 185 185 185 187 190 192 194 194 193 193 192
325 346 328 272 193 205 253 229 225 184 190 257 210 262 293 281 269 244 259 278 232 184 215 237 220 202 225 226 172 173 178 169 174 183 182 184 182 181 181 181 182 180 181 185 186 186 185 185 186 185 185 186 186 186 186 187 189 191 194 196 195 195 194
329 339 334 298 196 189 226 262 295 86 161 256 256 219 238 257 285 263 278 290 250 195 199 214 215 205 219 214 167 168 171 169 177 183 183 185 181 179 182 180 183 183 182 187 189 189 186 184 185 186 186 186 186 186 187 188 190 192 194 195 196 197 197
339 325 319 316 165 181 220 259 288 269 170 220 230 235 201 201 262 269 275 288 267 241 214 198 206 210 215 189 159 166 171 170 178 181 181 185 180 180 184 182 184 186 184 187 189 190 188 185 185 186 186 187 187 187 188 189 191 191 192 194 196 198 199
338 302 275 1 7 343 266 266 280 271 239 191 203 249 238 194 218 245 265 280 268 259 246 214 212 207 208 180 155 167 175 173 177 180 179 182 183 184 185 183 184 183 183 186 187 190 191 187 185 186 187 188 188 189 188 189 189 189 192 194 196 198 200
322 294 299 333 341 323 311 307 296 301 288 224 221 262 253 214 195 202 243 278 262 259 307 325 296 206 200 189 155 165 177 177 176 178 180 182 183 183 182 183 183 181 183 184 185 188 189 186 185 187 189 189 188 189 188 188 189 190 192 194 195 197 199
298 295 300 312 312 308 317 308 279 285 290 267 222 233 265 264 203 186 193 282 268 274 341 353 347 322 217 195 156 158 172 179 178 178 182 184 182 180 178 179 181 181 183 183 183 187 189 187 186 187 190 191 191 190 188 187 189 191 193 195 196 197 198
301 296 297 301 307 330 332 306 301 314 320 318 283 247 315 322 261 204 167 215 266 285 350 12 360 349 303 192 164 164 170 178 180 179 182 184 181 179 178 179 180 179 182 182 181 185 189 188 187 187 189 192 193 192 190 188 190 192 193 195 196 197 198
319 309 308 315 346 2 342 313 336 348 349 351 348 349 14 23 337 337 149 193 257 301 14 21 10 11 21 26 16 101 173 191 185 179 181 184 184 182 180 180 179 175 177 181 180 183 186 185 183 185 187 189 190 191 190 188 188 190 192 194 197 198 199
301 299 311 332 347 345 322 315 331 338 350 3 13 9 8 26 349 339 317 218 289 320 10 21 17 20 26 24 20 21 9 352 293 180 180 183 184 183 182 180 179 178 176 178 181 182 183 184 183 184 186 187 189 190 189 188 187 188 190 193 196 198 199
265 277 291 305 312 312 309 317 322 326 340 350 359 20 0 330 324 314 306 348 337 330 348 13 24 25 27 26 23 21 12 1 353 262 179 180 180 179 184 183 178 176 175 177 182 183 183 185 185 186 187 188 189 190 191 191 190 190 191 194 196 197 198
266 272 281 292 299 300 306 309 308 312 321 325 325 327 320 316 312 299 322 339 341 323 321 344 23 30 32 29 19 15 13 3 357 13 78 155 171 170 179 187 180 175 177 180 181 180 183 186 188 189 190 191 191 192 194 194 194 195 196 197 198 197 197
277 278 281 287 290 295 303 301 299 307 318 319 321 323 320 317 305 288 315 321 320 308 310 338 24 30 40 37 22 12 10 6 5 24 48 72 96 97 91 75 86 132 161 180 184 183 182 183 186 190 192 193 195 196 197 198 198 199 199 200 201 199 199
280 279 277 281 287 291 294 291 291 299 308 309 310 308 306 304 292 280 293 298 297 306 319 356 30 19 34 43 31 16 11 12 14 26 43 58 60 52 45 38 39 45 46 46 72 189 191 186 185 188 190 192 195 198 199 199 200 200 199 201 203 202 203
286 284 277 273 277 280 278 280 287 293 294 292 291 291 296 297 289 287 297 296 296 324 348 17 43 30 31 40 37 25 16 16 21 26 31 42 57 56 39 28 26 27 29 32 39 36 338 211 191 189 191 192 193 195 199 200 202 203 201 201 205 207 208
292 296 289 280 280 279 270 266 269 277 282 283 283 287 288 285 292 309 319 303 299 340 4 19 36 38 37 40 38 28 20 18 20 24 22 23 39 55 53 41 25 12 5 8 14 8 349 28 107 158 184 193 195 196 200 202 202 203 203 204 207 210 212
297 298 294 296 302 290 270 261 257 261 269 274 277 279 275 273 284 302 299 289 334 2 18 30 34 38 41 43 41 31 19 17 15 17 18 16 19 26 37 45 32 3 346 3 10 348 330 342 40 115 153 180 195 197 196 196 194 196 202 205 210 215 218
291 300 305 307 299 276 273 289 282 269 269 268 267 270 276 278 271 264 273 343 25 22 25 26 26 42 57 54 51 41 26 18 13 8 9 10 10 11 15 24 27 3 341 354 20 3 330 316 309 275 204 184 173 164 170 181 184 185 189 196 213 236 249
273 297 304 293 269 261 283 293 288 284 292 308 312 307 332 351 337 318 333 28 41 30 21 10 1 30 72 68 58 47 35 25 12 3 2 2 3 4 2 3 6 357 339 339 354 359 322 293 277 265 241 210 161 145 188 205 196 191 192 197 206 216 226
260 275 266 263 275 293 293 292 307 343 352 7 0 343 23 31 17 12 25 40 38 25 17 4 343 339 54 75 61 47 41 32 14 3 359 356 355 356 354 352 347 339 337 340 341 339 329 309 278 267 260 240 195 189 213 227 215 200 198 202 205 209 211
216 243 256 277 293 296 288 290 339 15 357 7 6 324 21 27 16 11 20 31 32 22 11 358 334 316 322 63 45 34 35 32 17 6 359 350 348 348 345 340 337 335 336 338 334 326 321 315 304 292 277 253 219 202 209 222 220 205 201 206 207 209 212
193 216 252 294 291 280 273 290 8 8 346 350 343 293 313 15 6 3 11 24 28 19 6 354 335 316 336 42 21 12 17 22 14 6 0 350 343 342 341 337 336 335 333 331 326 319 316 314 310 306 300 285 258 212 198 205 213 208 204 208 211 212 216
194 193 217 220 238 256 279 340 359 347 336 344 336 301 275 355 354 356 2 14 26 23 9 359 356 4 22 8 353 352 358 12 12 1 355 348 340 338 337 335 333 331 328 325 323 322 319 316 314 312 306 293 279 252 206 195 201 206 207 209 212 216 219
219 219 230 235 238 266 336 353 339 321 320 344 340 285 275 337 339 348 359 5 19 24 12 8 25 38 13 330 330 338 348 5 9 359 352 345 339 336 335 333 331 328 326 325 324 323 317 312 312 312 307 292 274 263 242 213 203 207 212 213 215 218 221
232 227 229 248 256 298 352 332 317 312 318 336 304 267 279 305 311 328 355 2 13 25 18 18 33 22 344 322 319 332 352 358 353 351 349 340 337 335 330 328 329 327 325 324 319 314 312 311 309 309 306 296 279 263 251 238 228 225 222 219 218 219 220
242 227 233 262 251 150 345 322 319 333 342 263 246 303 281 268 298 323 346 355 8 21 15 16 25 349 330 323 322 338 359 352 340 342 343 339 338 336 328 325 327 327 325 323 319 313 312 313 311 310 309 305 296 286 266 250 247 245 237 224 217 216 217
241 219 225 243 242 32 13 351 345 5 8 301 303 311 292 283 314 328 333 340 351 358 351 354 1 344 328 323 326 340 354 345 336 337 337 336 337 334 328 325 326 328 326 321 317 314 311 310 308 307 305 301 297 293 281 271 265 255 245 232 218 212 211
319 231 216 214 281 334 11 12 326 294 300 304 306 306 305 311 321 323 328 333 337 340 337 336 337 335 327 318 319 332 346 339 334 333 333 334 336 332 328 324 323 326 327 322 316 312 309 308 306 303 298 295 293 288 282 283 281 264 245 234 224 215 210
280 261 267 307 331 320 309 258 242 274 294 304 305 303 309 315 315 320 325 319 319 323 323 323 324 323 319 315 316 335 346 331 326 331 331 331 333 330 328 327 325 325 325 322 317 311 309 309 307 303 301 297 292 291 289 288 286 271 247 231 224 219 215
301 269 271 316 344 329 312 296 286 310 319 328 331 325 323 321 317 318 314 305 308 314 311 310 308 304 309 315 315 335 342 323 320 327 327 329 332 330 328 328 325 323 324 323 317 311 310 311 308 303 302 298 293 294 296 295 292 276 247 227 221 219 216
323 278 1 28 348 321 312 317 348 353 345 344 340 328 320 317 314 314 313 309 307 304 298 294 292 295 313 317 313 322 331 319 318 320 322 331 332 327 327 326 321 319 324 324 316 312 311 312 309 305 301 299 298 297 298 301 299 278 242 222 216 214 212
292 266 345 7 335 309 304 352 0 345 339 338 330 319 313 312 310 308 309 310 308 304 299 293 292 296 304 301 301 311 319 311 312 312 315 326 328 325 327 328 325 325 326 322 317 316 315 313 310 305 300 299 300 301 304 310 308 278 234 219 215 209 205
278 270 336 353 335 310 319 349 336 325 328 327 318 311 310 308 306 307 308 307 306 304 302 295 289 286 282 280 289 305 309 304 304 306 313 321 325 326 327 328 330 331 328 324 322 322 320 317 313 307 303 301 301 303 307 316 315 279 228 218 217 210 203
279 293 340 346 328 302 307 319 316 316 321 314 306 306 311 311 310 310 306 302 301 301 302 299 291 280 275 274 282 293 295 295 299 306 313 319 322 325 326 330 335 337 335 330 327 326 327 328 325 319 313 307 305 306 307 314 318 294 230 212 212 207 200
269 298 321 327 308 291 295 306 310 312 310 303 300 304 308 306 305 304 302 302 303 300 298 297 293 286 277 268 264 268 276 287 302 311 313 314 318 321 324 332 339 340 339 337 332 330 334 335 331 326 321 314 311 313 312 312 318 307 244 209 205 201 196
259 282 306 303 289 287 294 306 309 304 299 298 301 304 303 299 298 299 298 298 298 296 294 294 292 288 279 264 255 256 267 285 306 314 311 312 316 317 321 335 342 339 338 338 334 333 335 337 336 331 324 320 322 326 323 317 316 312 271 217 210 204 196
241 246 266 274 279 287 299 308 308 307 310 311 307 302 301 299 296 295 292 289 289 290 291 291 288 282 273 262 255 257 264 286 303 308 307 311 317 318 323 338 342 337 334 335 336 337 337 338 341 336 325 323 330 333 329 321 314 310 292 228 208 194 176